Location: Gilevgi
(36.8751°N, 30.0581°E)
Time: 09:47:56
(UTC+00:00)

CZ-2D R/B - Pass Details

Date: 15 March 2026
Orbit: 524 x 594 km, 98.0° (Epoch: 20 April)

Event Time Altitude Azimuth Distance (km) Brightness Sun altitude
Rises 17:21:22 0° 191° (S) 2,798 7.0 -15.6°
Reaches altitude 10° 17:23:44 10° 203° (SSW) 1,910 6.2 -16.1°
Maximum altitude 17:27:21 29° 263° (W) 1,108 5.6 -16.8°
Drops below altitude 10° 17:31:01 10° 324° (NW) 1,935 6.8 -17.5°
Sets 17:33:26 0° 336° (NNW) 2,841 7.5 -18.0°
